Miscellaneous Local Product
Issued by NWS Hastings, NE

Home | Current Version | Previous Version | Graphics & Text | Print | Product List | Glossary On
Versions: 1 2 3 4 5 6 7 8 9 10 11 12 13 14 15 16 17 18 19 20 21 22 23 24 25 26 27 28 29 30 31 32 33 34 35 36 37 38 39 40 41 42 43 44 45 46 47 48 49 50
000
AXUS43 KGID 271602
MISGRI

GID CWA HOURLY WEATHER ROUNDUP
NATIONAL WEATHER SERVICE HASTINGS NE
1100 AM CDT SAT AUG 27 2016

NOTE: "FAIR" INDICATES FEW OR NO CLOUDS BELOW 12,000 FEET WITH NO
SIGNIFICANT WEATHER AND/OR OBSTRUCTIONS TO VISIBILITY.

...SOUTH CENTRAL NEBRASKA...

CITY           SKY/WX    TMP DP  RH WIND       PRES   REMARKS
GRAND ISLAND   SUNNY     69  61  75 NW5       30.05F
HASTINGS       MOSUNNY   72  59  63 CALM      30.07R
KEARNEY        SUNNY     72  57  60 W3        30.05F
ORD            PTSUNNY   68  60  75 E6        30.02F
YORK           SUNNY     70  63  78 CALM      30.05S
AURORA         SUNNY     66  66 100 CALM      30.05S
LEXINGTON      SUNNY     68  59  72 SE3       30.07F
HOLDREGE       SUNNY     69  58  68 CALM      30.07S
HEBRON         MOSUNNY   73  65  75 CALM      30.05S

...NEBRASKA PANHANDLE...

CITY           SKY/WX    TMP DP  RH WIND       PRES   REMARKS
CHADRON        SUNNY     67  54  63 SW8       30.02F
ALLIANCE       PTSUNNY   61  55  81 S8        30.06F
SCOTTSBLUFF    CLOUDY    61  55  81 CALM      30.07S
SIDNEY         MOSUNNY   63  57  81 S3        30.10S

...WESTERN AND NORTH CENTRAL NEBRASKA...

CITY           SKY/WX    TMP DP  RH WIND       PRES   REMARKS
VALENTINE      SUNNY     71  54  54 S12       30.02F
AINSWORTH      SUNNY     69  58  68 SW6       30.03F
ONEILL         CLOUDY    67  62  85 SW6       30.04F
BROKEN BOW     SUNNY     70  59  68 S8        30.05F
IMPERIAL       MOSUNNY   65  60  84 S10       30.09S
NORTH PLATTE   MOSUNNY   67  58  72 SE8       30.07F
MCCOOK         SUNNY     69  60  73 S6        30.05F

...EASTERN NEBRASKA...

CITY           SKY/WX    TMP DP  RH WIND       PRES   REMARKS
NORFOLK        MOSUNNY   70  61  73 W3        30.03S
SO SIOUX CITY  CLOUDY    69  63  81 W3        30.02S
TEKAMAH        CLOUDY    70  65  84 CALM      30.02F
COLUMBUS       CLOUDY    70  57  64 NW3       30.04S
ALBION         MOSUNNY   68  63  84 S3        30.03F
OMAHA EPPLEY   PTSUNNY   74  66  76 CALM      30.02S
OFFUTT AFB     CLOUDY    74  67  79 W5        30.02S
MILLARD        MOSUNNY   74  66  77 CALM      30.02F
LINCOLN        PTSUNNY   75  65  70 S3        30.04S
NEBRASKA CITY  CLOUDY    72  70  93 W3        30.04S
BEATRICE       CLOUDY    72  65  79 CALM      30.05R
FALLS CITY     CLOUDY    75  67  76 NW7       30.03R

...NORTHERN KANSAS...

CITY           SKY/WX    TMP DP  RH WIND       PRES   REMARKS
GOODLAND       CLOUDY    59  58  96 CALM      30.10R
HILL CITY      SUNNY     71  61  70 VRB3      30.06F
NORTON         SUNNY     70  57  64 SE3       30.06S
SMITH CENTER   SUNNY     72  63  73 CALM      30.06S
BELOIT         SUNNY     70  63  78 CALM      30.04S
HAYS           SUNNY     72  57  60 E8        30.05F
RUSSELL        SUNNY     72  65  78 VRB6      30.05S
CONCORDIA      PTSUNNY   74  65  73 E6        30.05S
SALINA         SUNNY     76  67  73 SE7       30.05S
TOPEKA         SUNNY     78  68  71 S6        30.04R



USA.gov is the U.S. government's official web portal to all federal, state and local government web resources and services.